Wetterdaten: Dienstag, 05.01.2016
Datum Zeit Auen-Temp. Temp gefhlt Luftfeuchte Luftdruck Regen Wind Richtung Richtung Taupunkt Windben
05.01.2016 00:00 1,6 C 0,7 C 79 % 999,7 hPa 0,0 mm 8,8 km/h (2 Bft) W-SW 247 -1,6 C 9,3 km/h (2 Bft)
05.01.2016 00:05 1,6 C 0,7 C 79 % 999,7 hPa 0,0 mm 9,1 km/h (2 Bft) S-SW 202 -1,6 C 10,6 km/h (2 Bft)
05.01.2016 00:10 1,8 C 0,8 C 78 % 999,7 hPa 0,0 mm 9,3 km/h (2 Bft) SW 225 -1,6 C 13,5 km/h (3 Bft)
05.01.2016 00:15 1,7 C 0,8 C 78 % 999,7 hPa 0,0 mm 9,1 km/h (2 Bft) SW 225 -1,7 C 8,0 km/h (2 Bft)
05.01.2016 00:20 1,7 C 0,9 C 77 % 999,7 hPa 0,0 mm 8,5 km/h (2 Bft) SW 225 -1,9 C 8,8 km/h (2 Bft)
05.01.2016 00:25 1,4 C 0,7 C 77 % 999,7 hPa 0,0 mm 8,0 km/h (2 Bft) S-SW 202 -2,2 C 7,5 km/h (2 Bft)
05.01.2016 00:30 1,3 C 0,6 C 77 % 999,7 hPa 0,0 mm 7,3 km/h (2 Bft) SW 225 -2,3 C 7,3 km/h (2 Bft)
05.01.2016 00:35 1,4 C 0,6 C 77 % 999,5 hPa 0,0 mm 7,8 km/h (2 Bft) S-SW 202 -2,2 C 14,0 km/h (3 Bft)
05.01.2016 00:40 1,2 C 0,5 C 77 % 999,5 hPa 0,0 mm 7,3 km/h (2 Bft) W-SW 247 -2,4 C 7,3 km/h (2 Bft)
05.01.2016 00:45 0,0 C -0,1 C 76 % 999,5 hPa 0,0 mm 4,4 km/h (1 Bft) SO 135 -3,7 C 0,0 km/h (0 Bft)
05.01.2016 00:50 -0,8 C -0,9 C 78 % 999,5 hPa 0,0 mm 0,8 km/h (0 Bft) O-NO 67 -4,1 C 0,0 km/h (0 Bft)
05.01.2016 00:55 -1,0 C -1,2 C 78 % 999,5 hPa 0,0 mm 0,0 km/h (0 Bft) O-NO 67 -4,3 C 0,0 km/h (0 Bft)
05.01.2016 01:00 -1,4 C -1,7 C 79 % 999,5 hPa 0,0 mm 0,0 km/h (0 Bft) S 180 -4,6 C 0,0 km/h (0 Bft)
05.01.2016 01:05 -0,9 C -1,4 C 81 % 999,5 hPa 0,0 mm 0,3 km/h (0 Bft) O-SO 112 -3,7 C 0,0 km/h (0 Bft)
05.01.2016 01:10 -0,8 C -1,4 C 82 % 999,5 hPa 0,0 mm 0,3 km/h (0 Bft) O-SO 112 -3,5 C 0,0 km/h (0 Bft)
05.01.2016 01:15 -0,6 C -1,3 C 83 % 999,2 hPa 0,0 mm 0,0 km/h (0 Bft) SO 135 -3,1 C 0,0 km/h (0 Bft)
05.01.2016 01:20 -0,8 C -1,4 C 83 % 999,2 hPa 0,0 mm 0,0 km/h (0 Bft) O-SO 112 -3,3 C 0,0 km/h (0 Bft)
05.01.2016 01:25 -1,3 C -1,8 C 83 % 999,2 hPa 0,0 mm 0,0 km/h (0 Bft) O-NO 67 -3,8 C 0,0 km/h (0 Bft)
05.01.2016 01:30 -1,5 C -2,0 C 83 % 999,2 hPa 0,0 mm 0,0 km/h (0 Bft) O-NO 67 -4,0 C 0,0 km/h (0 Bft)
05.01.2016 01:35 -1,6 C -2,0 C 83 % 999,3 hPa 0,0 mm 0,0 km/h (0 Bft) O-NO 67 -4,1 C 0,0 km/h (0 Bft)
05.01.2016 01:40 -1,5 C -1,9 C 83 % 999,3 hPa 0,0 mm 0,0 km/h (0 Bft) O-NO 67 -4,0 C 0,0 km/h (0 Bft)
05.01.2016 01:45 -1,3 C -1,8 C 84 % 999,3 hPa 0,0 mm 0,0 km/h (0 Bft) O-SO 112 -3,6 C 0,0 km/h (0 Bft)
05.01.2016 01:50 -1,4 C -1,8 C 84 % 999,3 hPa 0,0 mm 0,0 km/h (0 Bft) O-NO 67 -3,7 C 0,0 km/h (0 Bft)
05.01.2016 01:55 -1,7 C -2,1 C 84 % 999,2 hPa 0,0 mm 0,0 km/h (0 Bft) N-NW 337 -4,0 C 0,0 km/h (0 Bft)
05.01.2016 02:00 -1,6 C -2,0 C 84 % 999,2 hPa 0,0 mm 0,0 km/h (0 Bft) O-NO 67 -3,9 C 0,0 km/h (0 Bft)
05.01.2016 02:05 -1,5 C -2,0 C 85 % 999,2 hPa 0,0 mm 0,0 km/h (0 Bft) O-NO 67 -3,7 C 0,0 km/h (0 Bft)
05.01.2016 02:10 -1,7 C -2,1 C 85 % 999,2 hPa 0,0 mm 0,0 km/h (0 Bft) O-NO 67 -3,9 C 0,0 km/h (0 Bft)
05.01.2016 02:15 -1,7 C -2,1 C 85 % 999,1 hPa 0,0 mm 0,0 km/h (0 Bft) O-NO 67 -3,9 C 0,0 km/h (0 Bft)
05.01.2016 02:20 -2,0 C -2,3 C 85 % 999,1 hPa 0,0 mm 0,0 km/h (0 Bft) O-NO 67 -4,2 C 0,0 km/h (0 Bft)
05.01.2016 02:25 -2,1 C -2,4 C 85 % 999,1 hPa 0,0 mm 0,0 km/h (0 Bft) O-NO 67 -4,3 C 0,0 km/h (0 Bft)
05.01.2016 02:30 -2,0 C -2,4 C 86 % 999,1 hPa 0,0 mm 0,0 km/h (0 Bft) NO 45 -4,0 C 0,0 km/h (0 Bft)
05.01.2016 02:35 -1,6 C -2,1 C 86 % 999,1 hPa 0,0 mm 0,0 km/h (0 Bft) O-SO 112 -3,6 C 0,0 km/h (0 Bft)
05.01.2016 02:40 -1,8 C -2,1 C 86 % 999,1 hPa 0,0 mm 0,0 km/h (0 Bft) W-SW 247 -3,8 C 0,0 km/h (0 Bft)
05.01.2016 02:45 -1,8 C -2,1 C 86 % 999,1 hPa 0,0 mm 0,0 km/h (0 Bft) W-SW 247 -3,8 C 0,0 km/h (0 Bft)
05.01.2016 02:50 -1,5 C -1,9 C 87 % 999,1 hPa 0,0 mm 0,0 km/h (0 Bft) S-SO 157 -3,4 C 0,0 km/h (0 Bft)
05.01.2016 02:55 -1,8 C -2,1 C 87 % 999,2 hPa 0,0 mm 0,0 km/h (0 Bft) O-NO 67 -3,7 C 0,0 km/h (0 Bft)
05.01.2016 03:00 -1,5 C -1,9 C 87 % 999,2 hPa 0,0 mm 0,0 km/h (0 Bft) NO 45 -3,4 C 0,0 km/h (0 Bft)
05.01.2016 03:05 -1,4 C -1,9 C 87 % 999,2 hPa 0,0 mm 0,0 km/h (0 Bft) O-SO 112 -3,3 C 0,0 km/h (0 Bft)
05.01.2016 03:10 -1,7 C -2,0 C 87 % 999,2 hPa 0,0 mm 0,0 km/h (0 Bft) N 360 -3,6 C 0,0 km/h (0 Bft)
05.01.2016 03:15 -1,6 C -2,0 C 87 % 999,1 hPa 0,0 mm 0,0 km/h (0 Bft) O-SO 112 -3,5 C 0,0 km/h (0 Bft)
05.01.2016 03:20 -1,8 C -2,1 C 87 % 999,1 hPa 0,0 mm 0,0 km/h (0 Bft) O-SO 112 -3,7 C 0,0 km/h (0 Bft)
05.01.2016 03:25 -1,8 C -2,1 C 88 % 999,1 hPa 0,0 mm 0,0 km/h (0 Bft) S-SW 202 -3,5 C 0,0 km/h (0 Bft)
05.01.2016 03:30 -1,8 C -2,1 C 88 % 999,1 hPa 0,0 mm 0,0 km/h (0 Bft) N-NO 22 -3,5 C 0,0 km/h (0 Bft)
05.01.2016 03:35 -1,7 C -2,0 C 88 % 998,7 hPa 0,0 mm 0,0 km/h (0 Bft) NO 45 -3,4 C 0,0 km/h (0 Bft)
05.01.2016 03:40 -1,5 C -1,8 C 88 % 998,7 hPa 0,0 mm 0,0 km/h (0 Bft) O-SO 112 -3,2 C 0,0 km/h (0 Bft)
05.01.2016 03:45 -1,5 C -1,8 C 88 % 998,7 hPa 0,0 mm 0,0 km/h (0 Bft) O-NO 67 -3,2 C 0,0 km/h (0 Bft)
05.01.2016 03:50 -1,6 C -1,9 C 88 % 998,7 hPa 0,0 mm 0,0 km/h (0 Bft) O-NO 67 -3,3 C 0,0 km/h (0 Bft)
05.01.2016 03:55 -1,7 C -2,0 C 88 % 998,5 hPa 0,0 mm 0,0 km/h (0 Bft) O-NO 67 -3,4 C 0,0 km/h (0 Bft)
05.01.2016 04:00 -1,5 C -1,8 C 88 % 998,5 hPa 0,0 mm 0,5 km/h (0 Bft) NW 315 -3,2 C 0,0 km/h (0 Bft)
05.01.2016 04:05 -1,5 C -1,8 C 88 % 998,5 hPa 0,0 mm 0,8 km/h (0 Bft) W-NW 292 -3,2 C 3,4 km/h (1 Bft)
05.01.2016 04:10 -1,1 C -1,5 C 89 % 998,5 hPa 0,0 mm 2,6 km/h (1 Bft) W-SW 247 -2,7 C 3,1 km/h (1 Bft)
05.01.2016 04:15 -1,1 C -1,4 C 89 % 998,2 hPa 0,0 mm 2,3 km/h (1 Bft) O-NO 67 -2,7 C 0,0 km/h (0 Bft)
05.01.2016 04:20 -0,9 C -1,3 C 89 % 998,2 hPa 0,0 mm 0,5 km/h (0 Bft) O-NO 67 -2,5 C 0,0 km/h (0 Bft)
05.01.2016 04:25 -0,9 C -1,3 C 89 % 998,2 hPa 0,0 mm 0,3 km/h (0 Bft) O-NO 67 -2,5 C 0,0 km/h (0 Bft)
05.01.2016 04:30 -1,3 C -1,6 C 89 % 998,2 hPa 0,0 mm 0,0 km/h (0 Bft) N 360 -2,9 C 0,0 km/h (0 Bft)
05.01.2016 04:35 -1,4 C -1,7 C 88 % 998,0 hPa 0,0 mm 0,0 km/h (0 Bft) N-NO 22 -3,1 C 0,0 km/h (0 Bft)
05.01.2016 04:41 -1,3 C -1,6 C 88 % 998,0 hPa 0,0 mm 0,0 km/h (0 Bft) N 360 -3,0 C 0,0 km/h (0 Bft)
05.01.2016 04:45 -1,0 C -1,4 C 89 % 998,0 hPa 0,0 mm 0,0 km/h (0 Bft) NW 315 -2,6 C 0,0 km/h (0 Bft)
05.01.2016 04:50 -0,9 C -1,3 C 89 % 998,0 hPa 0,0 mm 0,0 km/h (0 Bft) O-SO 112 -2,5 C 0,0 km/h (0 Bft)
05.01.2016 04:55 -0,8 C -1,2 C 89 % 998,0 hPa 0,0 mm 0,0 km/h (0 Bft) O-SO 112 -2,4 C 0,0 km/h (0 Bft)
05.01.2016 05:00 -0,6 C -1,0 C 84 % 998,0 hPa 0,0 mm 0,0 km/h (0 Bft) O-SO 112 -3,0 C 0,0 km/h (0 Bft)
05.01.2016 05:05 -0,6 C -1,0 C 84 % 998,0 hPa 0,0 mm 0,0 km/h (0 Bft) O-SO 112 -3,0 C 0,0 km/h (0 Bft)
05.01.2016 05:10 -0,8 C -1,2 C 88 % 998,0 hPa 0,0 mm 0,0 km/h (0 Bft) NW 315 -2,5 C 0,0 km/h (0 Bft)
05.01.2016 05:15 -0,9 C -1,3 C 88 % 997,9 hPa 0,0 mm 0,0 km/h (0 Bft) NW 315 -2,6 C 0,0 km/h (0 Bft)
05.01.2016 05:20 -1,0 C -1,4 C 88 % 997,9 hPa 0,0 mm 0,3 km/h (0 Bft) W-SW 247 -2,7 C 0,0 km/h (0 Bft)
05.01.2016 05:25 -1,0 C -1,3 C 88 % 997,9 hPa 0,0 mm 1,0 km/h (0 Bft) W 270 -2,7 C 0,0 km/h (0 Bft)
05.01.2016 05:30 -1,0 C -1,3 C 88 % 997,9 hPa 0,0 mm 2,1 km/h (1 Bft) NW 315 -2,7 C 10,6 km/h (2 Bft)
05.01.2016 05:35 -0,9 C -1,2 C 88 % 998,1 hPa 0,0 mm 2,3 km/h (1 Bft) W-SW 247 -2,6 C 5,4 km/h (1 Bft)
05.01.2016 05:40 -0,6 C -1,2 C 88 % 998,1 hPa 0,0 mm 5,2 km/h (1 Bft) W 270 -2,3 C 4,7 km/h (1 Bft)
05.01.2016 05:45 -0,5 C -1,0 C 88 % 998,1 hPa 0,0 mm 4,1 km/h (1 Bft) S 180 -2,2 C 0,0 km/h (0 Bft)
05.01.2016 05:50 -0,4 C -0,8 C 88 % 998,1 hPa 0,0 mm 2,6 km/h (1 Bft) SW 225 -2,1 C 3,9 km/h (1 Bft)
05.01.2016 05:55 -0,4 C -0,8 C 88 % 998,0 hPa 0,0 mm 1,8 km/h (1 Bft) O-SO 112 -2,1 C 0,0 km/h (0 Bft)
05.01.2016 06:00 -0,4 C -0,8 C 88 % 998,0 hPa 0,0 mm 2,6 km/h (1 Bft) O-SO 112 -2,1 C 4,1 km/h (1 Bft)
05.01.2016 06:05 -0,2 C -0,6 C 88 % 998,0 hPa 0,0 mm 3,6 km/h (1 Bft) O-SO 112 -1,9 C 5,2 km/h (1 Bft)
05.01.2016 06:10 -0,3 C -0,6 C 88 % 998,0 hPa 0,0 mm 2,1 km/h (1 Bft) O 90 -2,0 C 0,0 km/h (0 Bft)
05.01.2016 06:15 -0,5 C -0,7 C 88 % 998,2 hPa 0,0 mm 0,5 km/h (0 Bft) O 90 -2,2 C 0,0 km/h (0 Bft)
05.01.2016 06:20 -0,4 C -0,7 C 88 % 998,2 hPa 0,0 mm 0,0 km/h (0 Bft) O-SO 112 -2,1 C 0,0 km/h (0 Bft)
05.01.2016 06:25 -0,4 C -0,7 C 88 % 998,2 hPa 0,0 mm 0,0 km/h (0 Bft) NW 315 -2,1 C 0,0 km/h (0 Bft)
05.01.2016 06:30 -0,5 C -0,8 C 88 % 998,2 hPa 0,0 mm 1,0 km/h (0 Bft) NW 315 -2,2 C 2,8 km/h (1 Bft)
05.01.2016 06:35 -0,2 C -0,5 C 88 % 998,5 hPa 0,0 mm 3,1 km/h (1 Bft) W-SW 247 -1,9 C 8,3 km/h (2 Bft)
05.01.2016 06:40 0,0 C -0,7 C 88 % 998,5 hPa 0,0 mm 5,4 km/h (1 Bft) W-SW 247 -1,7 C 9,1 km/h (2 Bft)
05.01.2016 06:45 -0,1 C -0,6 C 88 % 998,5 hPa 0,0 mm 4,9 km/h (1 Bft) W-NW 292 -1,8 C 0,0 km/h (0 Bft)
05.01.2016 06:50 -0,1 C -0,4 C 88 % 998,5 hPa 0,0 mm 1,3 km/h (1 Bft) W-SW 247 -1,8 C 2,6 km/h (1 Bft)
05.01.2016 06:55 0,0 C -0,3 C 88 % 998,8 hPa 0,0 mm 2,8 km/h (1 Bft) SW 225 -1,7 C 12,2 km/h (2 Bft)
05.01.2016 07:00 0,3 C -0,4 C 88 % 998,8 hPa 0,0 mm 6,2 km/h (2 Bft) S 180 -1,4 C 10,9 km/h (2 Bft)
05.01.2016 07:05 0,6 C -0,1 C 87 % 998,8 hPa 0,0 mm 7,0 km/h (2 Bft) SW 225 -1,3 C 7,5 km/h (2 Bft)
05.01.2016 07:10 0,5 C 0,4 C 87 % 998,8 hPa 0,0 mm 3,9 km/h (1 Bft) W 270 -1,4 C 14,8 km/h (3 Bft)
05.01.2016 07:15 0,5 C 0,4 C 87 % 999,1 hPa 0,0 mm 2,8 km/h (1 Bft) SW 225 -1,4 C 6,0 km/h (2 Bft)
05.01.2016 07:20 0,6 C 0,5 C 86 % 999,1 hPa 0,0 mm 3,4 km/h (1 Bft) S 180 -1,5 C 0,0 km/h (0 Bft)
05.01.2016 07:25 0,5 C 0,4 C 86 % 999,1 hPa 0,0 mm 3,6 km/h (1 Bft) W-SW 247 -1,6 C 6,7 km/h (2 Bft)
05.01.2016 07:30 0,5 C 0,4 C 86 % 999,1 hPa 0,0 mm 3,1 km/h (1 Bft) N-NW 337 -1,6 C 0,0 km/h (0 Bft)
05.01.2016 07:35 0,4 C 0,3 C 86 % 999,4 hPa 0,0 mm 2,6 km/h (1 Bft) W-NW 292 -1,7 C 0,0 km/h (0 Bft)
05.01.2016 07:40 0,3 C 0,2 C 86 % 999,4 hPa 0,0 mm 1,0 km/h (0 Bft) W 270 -1,8 C 0,0 km/h (0 Bft)
05.01.2016 07:45 0,3 C 0,1 C 87 % 999,4 hPa 0,0 mm 0,8 km/h (0 Bft) O-SO 112 -1,6 C 0,0 km/h (0 Bft)
05.01.2016 07:50 0,3 C 0,1 C 87 % 999,4 hPa 0,0 mm 0,0 km/h (0 Bft) O 90 -1,6 C 0,0 km/h (0 Bft)
05.01.2016 07:55 0,3 C 0,1 C 88 % 999,2 hPa 0,0 mm 0,0 km/h (0 Bft) NO 45 -1,4 C 0,0 km/h (0 Bft)
05.01.2016 08:00 0,1 C -0,1 C 88 % 999,2 hPa 0,0 mm 0,0 km/h (0 Bft) W-SW 247 -1,6 C 0,0 km/h (0 Bft)
05.01.2016 08:05 0,1 C -0,1 C 88 % 999,2 hPa 0,0 mm 0,0 km/h (0 Bft) S 180 -1,6 C 0,0 km/h (0 Bft)
05.01.2016 08:10 0,1 C -0,2 C 88 % 999,2 hPa 0,0 mm 0,0 km/h (0 Bft) S-SO 157 -1,6 C 0,0 km/h (0 Bft)
05.01.2016 08:15 0,1 C -0,2 C 88 % 999,2 hPa 0,0 mm 0,0 km/h (0 Bft) S 180 -1,6 C 0,0 km/h (0 Bft)
05.01.2016 08:20 0,0 C -0,3 C 88 % 999,2 hPa 0,0 mm 0,0 km/h (0 Bft) O-SO 112 -1,7 C 0,0 km/h (0 Bft)
05.01.2016 08:25 -0,2 C -0,4 C 88 % 999,2 hPa 0,0 mm 0,0 km/h (0 Bft) O-NO 67 -1,9 C 0,0 km/h (0 Bft)
05.01.2016 08:30 -0,2 C -0,4 C 88 % 999,2 hPa 0,0 mm 0,3 km/h (0 Bft) NO 45 -1,9 C 0,0 km/h (0 Bft)
05.01.2016 08:35 -0,2 C -0,5 C 88 % 999,6 hPa 0,0 mm 0,3 km/h (0 Bft) S 180 -1,9 C 0,0 km/h (0 Bft)
05.01.2016 08:40 0,0 C -0,3 C 89 % 999,6 hPa 0,0 mm 0,3 km/h (0 Bft) S-SO 157 -1,6 C 0,0 km/h (0 Bft)
05.01.2016 08:45 0,0 C -0,2 C 85 % 999,6 hPa 0,0 mm 0,3 km/h (0 Bft) S-SO 157 -2,2 C 0,0 km/h (0 Bft)
05.01.2016 08:50 -0,1 C -0,3 C 89 % 999,6 hPa 0,0 mm 0,0 km/h (0 Bft) SO 135 -1,7 C 0,0 km/h (0 Bft)
05.01.2016 08:55 0,0 C -0,3 C 89 % 999,8 hPa 0,0 mm 0,0 km/h (0 Bft) SO 135 -1,6 C 0,0 km/h (0 Bft)
05.01.2016 09:00 0,0 C -0,2 C 89 % 999,8 hPa 0,0 mm 0,0 km/h (0 Bft) O-NO 67 -1,6 C 0,0 km/h (0 Bft)
05.01.2016 09:05 -0,1 C -0,3 C 89 % 999,8 hPa 0,0 mm 0,3 km/h (0 Bft) W-NW 292 -1,7 C 4,4 km/h (1 Bft)
05.01.2016 09:10 -0,1 C -0,3 C 89 % 999,8 hPa 0,0 mm 0,8 km/h (0 Bft) O-SO 112 -1,7 C 0,0 km/h (0 Bft)
05.01.2016 09:15 -0,1 C -0,2 C 85 % 1000,0 hPa 0,0 mm 0,8 km/h (0 Bft) W 270 -2,3 C 0,0 km/h (0 Bft)
05.01.2016 09:20 0,0 C 0,0 C 85 % 1000,0 hPa 0,0 mm 0,0 km/h (0 Bft) NW 315 -2,2 C 2,8 km/h (1 Bft)
05.01.2016 09:25 0,0 C 0,0 C 85 % 1000,0 hPa 0,0 mm 0,3 km/h (0 Bft) N-NW 337 -2,2 C 0,0 km/h (0 Bft)
05.01.2016 09:30 0,0 C 0,1 C 85 % 1000,0 hPa 0,0 mm 0,8 km/h (0 Bft) NW 315 -2,2 C 3,4 km/h (1 Bft)
05.01.2016 09:35 0,1 C 0,2 C 85 % 1000,3 hPa 0,0 mm 0,5 km/h (0 Bft) W 270 -2,1 C 0,0 km/h (0 Bft)
05.01.2016 09:40 0,2 C 0,3 C 85 % 1000,3 hPa 0,0 mm 0,5 km/h (0 Bft) S-SW 202 -2,0 C 2,6 km/h (1 Bft)
05.01.2016 09:45 0,4 C 0,5 C 86 % 1000,3 hPa 0,0 mm 0,0 km/h (0 Bft) W 270 -1,7 C 0,0 km/h (0 Bft)
05.01.2016 09:50 0,5 C 0,6 C 86 % 1000,3 hPa 0,0 mm 0,0 km/h (0 Bft) S 180 -1,6 C 0,0 km/h (0 Bft)
05.01.2016 09:55 0,4 C 0,6 C 86 % 1000,6 hPa 0,0 mm 0,5 km/h (0 Bft) SW 225 -1,7 C 0,0 km/h (0 Bft)
05.01.2016 10:00 0,7 C 0,8 C 86 % 1000,6 hPa 0,0 mm 0,5 km/h (0 Bft) S 180 -1,4 C 0,0 km/h (0 Bft)
05.01.2016 10:05 0,8 C 0,9 C 86 % 1000,6 hPa 0,0 mm 0,3 km/h (0 Bft) W 270 -1,3 C 3,1 km/h (1 Bft)
05.01.2016 10:10 1,0 C 1,1 C 86 % 1000,6 hPa 0,0 mm 1,3 km/h (1 Bft) W 270 -1,1 C 4,1 km/h (1 Bft)
05.01.2016 10:15 1,2 C 1,3 C 86 % 1000,7 hPa 0,0 mm 2,6 km/h (1 Bft) NW 315 -0,9 C 6,5 km/h (2 Bft)
05.01.2016 10:20 1,4 C 1,4 C 90 % 1000,7 hPa 0,0 mm 2,8 km/h (1 Bft) SW 225 -0,1 C 3,4 km/h (1 Bft)
05.01.2016 10:25 1,4 C 1,4 C 90 % 1000,7 hPa 0,0 mm 2,8 km/h (1 Bft) W-SW 247 -0,1 C 7,3 km/h (2 Bft)
05.01.2016 10:30 1,6 C 1,5 C 86 % 1000,7 hPa 0,0 mm 4,9 km/h (1 Bft) W 270 -0,5 C 5,4 km/h (1 Bft)
05.01.2016 10:35 1,8 C 1,6 C 86 % 1001,0 hPa 0,0 mm 6,5 km/h (2 Bft) S 180 -0,3 C 6,5 km/h (2 Bft)
05.01.2016 10:40 1,9 C 1,8 C 86 % 1001,0 hPa 0,0 mm 6,5 km/h (2 Bft) W-SW 247 -0,2 C 16,1 km/h (3 Bft)
05.01.2016 10:42 2,0 C 1,9 C 85 % 1001,0 hPa 0,0 mm 6,0 km/h (2 Bft) S 180 -0,3 C 8,8 km/h (2 Bft)
05.01.2016 10:45 2,0 C 1,9 C 85 % 1001,0 hPa 0,0 mm 6,0 km/h (2 Bft) S 180 -0,3 C 8,8 km/h (2 Bft)
05.01.2016 10:50 2,0 C 1,7 C 88 % 1001,0 hPa 0,0 mm 6,7 km/h (2 Bft) W 270 0,2 C 6,5 km/h (2 Bft)
05.01.2016 10:55 2,0 C 1,7 C 88 % 1000,9 hPa 0,0 mm 6,5 km/h (2 Bft) S 180 0,2 C 6,5 km/h (2 Bft)
05.01.2016 11:00 2,0 C 1,8 C 85 % 1000,9 hPa 0,0 mm 6,2 km/h (2 Bft) W-SW 247 -0,3 C 3,4 km/h (1 Bft)
05.01.2016 11:05 2,0 C 1,9 C 88 % 1000,9 hPa 0,0 mm 4,9 km/h (1 Bft) SO 135 0,2 C 0,0 km/h (0 Bft)
05.01.2016 11:10 2,0 C 2,3 C 85 % 1000,9 hPa 0,0 mm 0,8 km/h (0 Bft) W-SW 247 -0,3 C 0,0 km/h (0 Bft)
05.01.2016 11:15 2,1 C 2,5 C 85 % 1001,0 hPa 0,0 mm 2,1 km/h (1 Bft) W 270 -0,2 C 6,2 km/h (2 Bft)
05.01.2016 11:20 2,3 C 2,8 C 85 % 1001,0 hPa 0,0 mm 4,1 km/h (1 Bft) W-SW 247 0,0 C 0,0 km/h (0 Bft)
05.01.2016 11:25 2,3 C 3,0 C 85 % 1001,0 hPa 0,0 mm 3,4 km/h (1 Bft) W 270 0,0 C 0,0 km/h (0 Bft)
05.01.2016 11:30 2,5 C 3,2 C 88 % 1001,0 hPa 0,0 mm 0,5 km/h (0 Bft) W 270 0,7 C 0,0 km/h (0 Bft)
05.01.2016 11:35 2,5 C 3,3 C 88 % 1001,0 hPa 0,0 mm 0,3 km/h (0 Bft) NW 315 0,7 C 0,0 km/h (0 Bft)
05.01.2016 11:40 2,6 C 3,3 C 88 % 1001,0 hPa 0,0 mm 0,8 km/h (0 Bft) W 270 0,8 C 2,8 km/h (1 Bft)
05.01.2016 11:45 2,6 C 3,4 C 88 % 1001,0 hPa 0,0 mm 1,6 km/h (1 Bft) SW 225 0,8 C 5,7 km/h (1 Bft)
05.01.2016 11:50 2,7 C 3,4 C 84 % 1001,0 hPa 0,0 mm 2,1 km/h (1 Bft) SW 225 0,3 C 0,0 km/h (0 Bft)
05.01.2016 11:55 2,7 C 3,5 C 84 % 1000,9 hPa 0,0 mm 2,8 km/h (1 Bft) S 180 0,3 C 4,7 km/h (1 Bft)
05.01.2016 12:00 2,7 C 3,6 C 84 % 1000,9 hPa 0,0 mm 1,8 km/h (1 Bft) W 270 0,3 C 0,0 km/h (0 Bft)
05.01.2016 12:05 2,7 C 3,6 C 84 % 1000,9 hPa 0,0 mm 2,6 km/h (1 Bft) NW 315 0,3 C 13,5 km/h (3 Bft)
05.01.2016 12:10 2,8 C 3,6 C 84 % 1000,9 hPa 0,0 mm 4,4 km/h (1 Bft) W-SW 247 0,4 C 2,8 km/h (1 Bft)
05.01.2016 12:15 2,8 C 3,6 C 84 % 1000,9 hPa 0,0 mm 4,1 km/h (1 Bft) SW 225 0,4 C 5,4 km/h (1 Bft)
05.01.2016 12:20 2,9 C 3,8 C 83 % 1000,9 hPa 0,0 mm 2,8 km/h (1 Bft) SW 225 0,3 C 0,0 km/h (0 Bft)
05.01.2016 12:25 3,0 C 3,8 C 82 % 1000,9 hPa 0,0 mm 2,6 km/h (1 Bft) W 270 0,2 C 4,1 km/h (1 Bft)
05.01.2016 12:30 3,1 C 4,0 C 82 % 1000,9 hPa 0,0 mm 1,0 km/h (0 Bft) SO 135 0,3 C 0,0 km/h (0 Bft)
05.01.2016 12:35 3,2 C 4,2 C 82 % 1000,6 hPa 0,0 mm 0,5 km/h (0 Bft) O-NO 67 0,4 C 0,0 km/h (0 Bft)
05.01.2016 12:40 3,2 C 4,5 C 82 % 1000,6 hPa 0,0 mm 0,3 km/h (0 Bft) O-SO 112 0,4 C 0,0 km/h (0 Bft)
05.01.2016 12:45 3,3 C 4,5 C 82 % 1000,6 hPa 0,0 mm 0,8 km/h (0 Bft) W 270 0,5 C 0,0 km/h (0 Bft)
05.01.2016 12:50 3,3 C 4,6 C 82 % 1000,6 hPa 0,0 mm 1,3 km/h (1 Bft) W-SW 247 0,5 C 4,1 km/h (1 Bft)
05.01.2016 12:55 3,3 C 4,6 C 81 % 1000,7 hPa 0,0 mm 2,6 km/h (1 Bft) W 270 0,4 C 3,1 km/h (1 Bft)
05.01.2016 13:00 3,4 C 4,7 C 81 % 1000,7 hPa 0,0 mm 2,6 km/h (1 Bft) NW 315 0,5 C 0,0 km/h (0 Bft)
05.01.2016 13:05 3,6 C 4,8 C 81 % 1000,7 hPa 0,0 mm 1,3 km/h (1 Bft) N-NW 337 0,7 C 0,0 km/h (0 Bft)
05.01.2016 13:10 3,8 C 5,1 C 81 % 1000,7 hPa 0,0 mm 0,3 km/h (0 Bft) NW 315 0,8 C 0,0 km/h (0 Bft)
05.01.2016 13:15 3,8 C 5,2 C 81 % 1000,6 hPa 0,0 mm 0,0 km/h (0 Bft) NW 315 0,8 C 0,0 km/h (0 Bft)
05.01.2016 13:20 3,8 C 5,3 C 81 % 1000,6 hPa 0,0 mm 0,3 km/h (0 Bft) NW 315 0,8 C 6,5 km/h (2 Bft)
05.01.2016 13:25 3,8 C 5,2 C 81 % 1000,6 hPa 0,0 mm 0,8 km/h (0 Bft) W 270 0,8 C 4,1 km/h (1 Bft)
05.01.2016 13:30 3,8 C 5,2 C 80 % 1000,6 hPa 0,0 mm 1,6 km/h (1 Bft) N-NW 337 0,7 C 3,9 km/h (1 Bft)
05.01.2016 13:35 3,9 C 5,2 C 80 % 1000,9 hPa 0,0 mm 2,3 km/h (1 Bft) W-SW 247 0,8 C 3,1 km/h (1 Bft)
05.01.2016 13:40 4,0 C 5,4 C 79 % 1000,9 hPa 0,0 mm 2,1 km/h (1 Bft) W 270 0,7 C 3,6 km/h (1 Bft)
05.01.2016 13:45 4,0 C 5,5 C 79 % 1000,9 hPa 0,0 mm 2,1 km/h (1 Bft) W-SW 247 0,7 C 5,4 km/h (1 Bft)
05.01.2016 13:50 4,2 C 5,7 C 79 % 1000,9 hPa 0,0 mm 2,6 km/h (1 Bft) W 270 0,9 C 4,1 km/h (1 Bft)
05.01.2016 13:55 4,2 C 5,8 C 79 % 1001,0 hPa 0,0 mm 1,8 km/h (1 Bft) SW 225 0,9 C 3,9 km/h (1 Bft)
05.01.2016 14:00 4,5 C 6,2 C 78 % 1001,0 hPa 0,0 mm 2,6 km/h (1 Bft) W-SW 247 1,0 C 3,1 km/h (1 Bft)
05.01.2016 14:05 4,8 C 6,8 C 78 % 1001,0 hPa 0,0 mm 3,4 km/h (1 Bft) SW 225 1,3 C 7,8 km/h (2 Bft)
05.01.2016 14:10 5,2 C 8,6 C 77 % 1001,0 hPa 0,0 mm 3,9 km/h (1 Bft) W 270 1,5 C 2,6 km/h (1 Bft)
05.01.2016 14:15 4,8 C 9,2 C 77 % 1001,0 hPa 0,0 mm 5,2 km/h (1 Bft) W 270 1,1 C 13,7 km/h (3 Bft)
05.01.2016 14:20 4,3 C 8,7 C 76 % 1001,0 hPa 0,0 mm 5,4 km/h (1 Bft) NW 315 0,5 C 4,9 km/h (1 Bft)
05.01.2016 14:25 4,1 C 8,4 C 76 % 1001,0 hPa 0,0 mm 4,9 km/h (1 Bft) W-NW 292 0,3 C 2,8 km/h (1 Bft)
05.01.2016 14:30 3,8 C 7,4 C 76 % 1001,0 hPa 0,0 mm 1,0 km/h (0 Bft) W-NW 292 -0,0 C 4,1 km/h (1 Bft)
05.01.2016 14:35 3,7 C 7,0 C 76 % 1001,0 hPa 0,0 mm 1,0 km/h (0 Bft) W-NW 292 -0,1 C 2,8 km/h (1 Bft)
05.01.2016 14:40 3,8 C 7,0 C 76 % 1001,0 hPa 0,0 mm 1,8 km/h (1 Bft) W 270 -0,0 C 3,1 km/h (1 Bft)
05.01.2016 14:45 3,9 C 6,6 C 76 % 1001,0 hPa 0,0 mm 2,8 km/h (1 Bft) W 270 0,1 C 6,0 km/h (2 Bft)
05.01.2016 14:50 4,2 C 6,8 C 76 % 1001,0 hPa 0,0 mm 4,4 km/h (1 Bft) NW 315 0,4 C 4,1 km/h (1 Bft)
05.01.2016 14:55 4,3 C 7,3 C 76 % 1000,9 hPa 0,0 mm 5,4 km/h (1 Bft) W-NW 292 0,5 C 8,5 km/h (2 Bft)
05.01.2016 15:00 4,5 C 6,6 C 75 % 1000,9 hPa 0,0 mm 3,9 km/h (1 Bft) W 270 0,5 C 0,0 km/h (0 Bft)
05.01.2016 15:05 4,4 C 6,3 C 75 % 1000,9 hPa 0,0 mm 2,8 km/h (1 Bft) W 270 0,4 C 5,2 km/h (1 Bft)
05.01.2016 15:10 4,4 C 5,8 C 75 % 1000,9 hPa 0,0 mm 1,8 km/h (1 Bft) W 270 0,4 C 4,4 km/h (1 Bft)
05.01.2016 15:15 4,4 C 5,5 C 75 % 1001,2 hPa 0,0 mm 1,6 km/h (1 Bft) W-SW 247 0,4 C 0,0 km/h (0 Bft)
05.01.2016 15:20 4,2 C 5,2 C 74 % 1001,2 hPa 0,0 mm 2,1 km/h (1 Bft) W-SW 247 -0,0 C 4,4 km/h (1 Bft)
05.01.2016 15:25 4,2 C 5,0 C 74 % 1001,2 hPa 0,0 mm 2,1 km/h (1 Bft) W-NW 292 -0,0 C 10,6 km/h (2 Bft)
05.01.2016 15:30 4,1 C 4,7 C 74 % 1001,2 hPa 0,0 mm 4,7 km/h (1 Bft) W-NW 292 -0,1 C 17,1 km/h (3 Bft)
05.01.2016 15:35 4,0 C 3,9 C 73 % 1001,3 hPa 0,0 mm 7,5 km/h (2 Bft) SW 225 -0,4 C 9,1 km/h (2 Bft)
05.01.2016 15:40 3,7 C 3,6 C 73 % 1001,3 hPa 0,0 mm 6,5 km/h (2 Bft) W-SW 247 -0,7 C 5,4 km/h (1 Bft)
05.01.2016 15:45 3,6 C 3,7 C 73 % 1001,3 hPa 0,0 mm 4,7 km/h (1 Bft) W 270 -0,8 C 6,2 km/h (2 Bft)
05.01.2016 15:50 3,5 C 3,4 C 74 % 1001,3 hPa 0,0 mm 5,7 km/h (1 Bft) W-SW 247 -0,7 C 9,3 km/h (2 Bft)
05.01.2016 15:55 3,4 C 3,2 C 74 % 1001,3 hPa 0,0 mm 6,0 km/h (2 Bft) W-SW 247 -0,8 C 9,6 km/h (2 Bft)
05.01.2016 16:00 3,3 C 3,0 C 74 % 1001,3 hPa 0,0 mm 6,7 km/h (2 Bft) SO 135 -0,9 C 5,2 km/h (1 Bft)
05.01.2016 16:05 3,2 C 2,9 C 74 % 1001,3 hPa 0,0 mm 6,7 km/h (2 Bft) W-SW 247 -1,0 C 10,1 km/h (2 Bft)
05.01.2016 16:10 3,0 C 2,8 C 74 % 1001,3 hPa 0,0 mm 5,7 km/h (1 Bft) W 270 -1,2 C 2,8 km/h (1 Bft)
05.01.2016 16:15 2,9 C 2,7 C 76 % 1001,3 hPa 0,0 mm 5,7 km/h (1 Bft) W-SW 247 -0,9 C 10,4 km/h (2 Bft)
05.01.2016 16:20 2,7 C 2,5 C 76 % 1001,3 hPa 0,0 mm 5,2 km/h (1 Bft) W-SW 247 -1,1 C 5,4 km/h (1 Bft)
05.01.2016 16:25 2,7 C 2,5 C 76 % 1001,3 hPa 0,0 mm 4,9 km/h (1 Bft) W-SW 247 -1,1 C 4,7 km/h (1 Bft)
05.01.2016 16:30 2,6 C 2,4 C 76 % 1001,3 hPa 0,0 mm 4,7 km/h (1 Bft) SW 225 -1,2 C 5,2 km/h (1 Bft)
05.01.2016 16:35 2,5 C 2,3 C 77 % 1001,5 hPa 0,0 mm 4,7 km/h (1 Bft) S-SW 202 -1,1 C 5,4 km/h (1 Bft)
05.01.2016 16:40 2,5 C 2,2 C 77 % 1001,5 hPa 0,0 mm 4,9 km/h (1 Bft) W 270 -1,1 C 6,5 km/h (2 Bft)
05.01.2016 16:43 2,4 C 2,2 C 77 % 1001,5 hPa 0,0 mm 4,4 km/h (1 Bft) S-SW 202 -1,2 C 3,9 km/h (1 Bft)
05.01.2016 16:45 2,4 C 2,2 C 77 % 1001,5 hPa 0,0 mm 4,4 km/h (1 Bft) S-SW 202 -1,2 C 3,9 km/h (1 Bft)
05.01.2016 16:50 2,2 C 2,0 C 78 % 1001,5 hPa 0,0 mm 2,8 km/h (1 Bft) SW 225 -1,2 C 5,7 km/h (1 Bft)
05.01.2016 16:55 2,1 C 1,9 C 78 % 1001,5 hPa 0,0 mm 2,3 km/h (1 Bft) S 180 -1,3 C 3,4 km/h (1 Bft)
05.01.2016 17:00 2,0 C 1,7 C 79 % 1001,5 hPa 0,0 mm 2,1 km/h (1 Bft) SO 135 -1,2 C 2,8 km/h (1 Bft)
05.01.2016 17:05 1,8 C 1,6 C 79 % 1001,5 hPa 0,0 mm 1,3 km/h (1 Bft) O-SO 112 -1,4 C 0,0 km/h (0 Bft)
05.01.2016 17:10 1,7 C 1,4 C 80 % 1001,5 hPa 0,0 mm 0,3 km/h (0 Bft) O-SO 112 -1,4 C 0,0 km/h (0 Bft)
05.01.2016 17:15 1,5 C 1,3 C 80 % 1001,5 hPa 0,0 mm 0,0 km/h (0 Bft) O-SO 112 -1,6 C 0,0 km/h (0 Bft)
05.01.2016 17:20 1,3 C 1,1 C 80 % 1001,5 hPa 0,0 mm 0,0 km/h (0 Bft) O-SO 112 -1,8 C 0,0 km/h (0 Bft)
05.01.2016 17:25 1,3 C 1,0 C 81 % 1001,5 hPa 0,0 mm 0,0 km/h (0 Bft) O-NO 67 -1,6 C 0,0 km/h (0 Bft)
05.01.2016 17:30 1,4 C 1,0 C 81 % 1001,5 hPa 0,0 mm 0,0 km/h (0 Bft) O-NO 67 -1,5 C 0,0 km/h (0 Bft)
05.01.2016 17:35 1,3 C 0,9 C 82 % 1001,5 hPa 0,0 mm 0,0 km/h (0 Bft) O-SO 112 -1,4 C 0,0 km/h (0 Bft)
05.01.2016 17:40 0,9 C 0,5 C 82 % 1001,5 hPa 0,0 mm 0,0 km/h (0 Bft) O-SO 112 -1,8 C 0,0 km/h (0 Bft)
05.01.2016 17:45 0,7 C 0,3 C 82 % 1001,5 hPa 0,0 mm 0,0 km/h (0 Bft) O-SO 112 -2,0 C 0,0 km/h (0 Bft)
05.01.2016 17:50 0,8 C 0,2 C 82 % 1001,5 hPa 0,0 mm 0,0 km/h (0 Bft) O-SO 112 -1,9 C 0,0 km/h (0 Bft)
05.01.2016 17:55 0,6 C 0,0 C 82 % 1001,7 hPa 0,0 mm 0,0 km/h (0 Bft) O-SO 112 -2,1 C 0,0 km/h (0 Bft)
05.01.2016 18:00 0,7 C 0,1 C 83 % 1001,7 hPa 0,0 mm 0,3 km/h (0 Bft) O-SO 112 -1,8 C 0,0 km/h (0 Bft)
05.01.2016 18:05 0,5 C 0,0 C 83 % 1001,7 hPa 0,0 mm 0,3 km/h (0 Bft) N-NW 337 -2,0 C 4,1 km/h (1 Bft)
05.01.2016 18:10 0,1 C -0,3 C 83 % 1001,7 hPa 0,0 mm 0,3 km/h (0 Bft) N-NW 337 -2,4 C 0,0 km/h (0 Bft)
05.01.2016 18:15 0,1 C -0,3 C 83 % 1001,8 hPa 0,0 mm 0,3 km/h (0 Bft) N-NW 337 -2,4 C 0,0 km/h (0 Bft)
05.01.2016 18:20 0,0 C -0,5 C 84 % 1001,8 hPa 0,0 mm 0,0 km/h (0 Bft) NW 315 -2,4 C 0,0 km/h (0 Bft)
05.01.2016 18:25 0,1 C -0,5 C 84 % 1001,8 hPa 0,0 mm 0,0 km/h (0 Bft) N 360 -2,3 C 0,0 km/h (0 Bft)
05.01.2016 18:30 -0,2 C -0,7 C 84 % 1001,8 hPa 0,0 mm 0,0 km/h (0 Bft) NO 45 -2,6 C 0,0 km/h (0 Bft)
05.01.2016 18:35 0,0 C -0,6 C 85 % 1001,8 hPa 0,0 mm 0,0 km/h (0 Bft) NO 45 -2,2 C 0,0 km/h (0 Bft)
05.01.2016 18:40 0,2 C -0,3 C 82 % 1001,8 hPa 0,0 mm 0,0 km/h (0 Bft) NO 45 -2,5 C 0,0 km/h (0 Bft)
05.01.2016 18:45 0,4 C -0,2 C 86 % 1001,8 hPa 0,0 mm 0,0 km/h (0 Bft) NO 45 -1,7 C 0,0 km/h (0 Bft)
05.01.2016 18:50 0,0 C -0,4 C 86 % 1001,8 hPa 0,0 mm 0,0 km/h (0 Bft) NO 45 -2,1 C 0,0 km/h (0 Bft)
05.01.2016 18:55 0,1 C -0,3 C 86 % 1001,8 hPa 0,0 mm 0,0 km/h (0 Bft) SO 135 -2,0 C 0,0 km/h (0 Bft)
05.01.2016 19:00 0,0 C -0,3 C 86 % 1001,8 hPa 0,0 mm 0,0 km/h (0 Bft) NO 45 -2,1 C 0,0 km/h (0 Bft)
05.01.2016 19:05 -0,3 C -0,6 C 86 % 1001,8 hPa 0,0 mm 0,0 km/h (0 Bft) NO 45 -2,3 C 0,0 km/h (0 Bft)
05.01.2016 19:10 -0,3 C -0,6 C 86 % 1001,8 hPa 0,0 mm 0,0 km/h (0 Bft) O-SO 112 -2,3 C 0,0 km/h (0 Bft)
05.01.2016 19:15 -0,3 C -0,6 C 86 % 1001,7 hPa 0,0 mm 0,0 km/h (0 Bft) NO 45 -2,3 C 0,0 km/h (0 Bft)
05.01.2016 19:20 -0,4 C -0,7 C 86 % 1001,7 hPa 0,0 mm 0,0 km/h (0 Bft) NW 315 -2,4 C 0,0 km/h (0 Bft)
05.01.2016 19:25 -0,3 C -0,6 C 86 % 1001,7 hPa 0,0 mm 0,3 km/h (0 Bft) O-NO 67 -2,3 C 2,8 km/h (1 Bft)
05.01.2016 19:30 -0,2 C -0,5 C 83 % 1001,7 hPa 0,0 mm 0,3 km/h (0 Bft) O-SO 112 -2,7 C 0,0 km/h (0 Bft)
05.01.2016 19:35 -0,1 C -0,5 C 87 % 1001,8 hPa 0,0 mm 0,3 km/h (0 Bft) O-SO 112 -2,0 C 0,0 km/h (0 Bft)
05.01.2016 19:40 -0,1 C -0,3 C 83 % 1001,8 hPa 0,0 mm 0,0 km/h (0 Bft) O-SO 112 -2,6 C 0,0 km/h (0 Bft)
05.01.2016 19:45 -0,1 C -0,2 C 83 % 1001,8 hPa 0,0 mm 0,0 km/h (0 Bft) O-NO 67 -2,6 C 0,0 km/h (0 Bft)
05.01.2016 19:50 0,2 C 0,2 C 84 % 1001,8 hPa 0,0 mm 0,0 km/h (0 Bft) O-SO 112 -2,2 C 0,0 km/h (0 Bft)
05.01.2016 19:55 0,4 C 0,3 C 84 % 1001,9 hPa 0,0 mm 0,0 km/h (0 Bft) O 90 -2,0 C 0,0 km/h (0 Bft)
05.01.2016 20:00 0,4 C 0,2 C 88 % 1001,9 hPa 0,0 mm 0,0 km/h (0 Bft) S-SO 157 -1,3 C 0,0 km/h (0 Bft)
05.01.2016 20:05 0,7 C 0,5 C 84 % 1001,9 hPa 0,0 mm 0,0 km/h (0 Bft) S-SO 157 -1,7 C 0,0 km/h (0 Bft)
05.01.2016 20:10 0,6 C 0,4 C 88 % 1001,9 hPa 0,0 mm 0,0 km/h (0 Bft) S-SO 157 -1,2 C 0,0 km/h (0 Bft)
05.01.2016 20:15 0,6 C 0,4 C 88 % 1002,0 hPa 0,0 mm 0,3 km/h (0 Bft) SO 135 -1,2 C 3,1 km/h (1 Bft)
05.01.2016 20:20 0,8 C 0,6 C 88 % 1002,0 hPa 0,0 mm 0,3 km/h (0 Bft) SO 135 -1,0 C 0,0 km/h (0 Bft)
05.01.2016 20:25 0,8 C 0,6 C 84 % 1002,0 hPa 0,0 mm 0,5 km/h (0 Bft) O 90 -1,6 C 0,0 km/h (0 Bft)
05.01.2016 20:30 0,8 C 0,6 C 84 % 1002,0 hPa 0,0 mm 0,3 km/h (0 Bft) O-NO 67 -1,6 C 0,0 km/h (0 Bft)
05.01.2016 20:35 0,8 C 0,6 C 88 % 1002,1 hPa 0,0 mm 0,0 km/h (0 Bft) O 90 -1,0 C 0,0 km/h (0 Bft)
05.01.2016 20:40 0,8 C 0,5 C 88 % 1002,1 hPa 0,0 mm 0,0 km/h (0 Bft) O-SO 112 -1,0 C 0,0 km/h (0 Bft)
05.01.2016 20:45 0,7 C 0,4 C 87 % 1002,1 hPa 0,0 mm 0,3 km/h (0 Bft) O-SO 112 -1,2 C 0,0 km/h (0 Bft)
05.01.2016 20:50 0,8 C 0,5 C 87 % 1002,1 hPa 0,0 mm 0,3 km/h (0 Bft) SO 135 -1,1 C 0,0 km/h (0 Bft)
05.01.2016 20:55 0,5 C 0,2 C 87 % 1002,0 hPa 0,0 mm 0,3 km/h (0 Bft) N-NO 22 -1,4 C 0,0 km/h (0 Bft)
05.01.2016 21:00 0,3 C 0,0 C 87 % 1002,0 hPa 0,0 mm 0,0 km/h (0 Bft) W-NW 292 -1,6 C 0,0 km/h (0 Bft)
05.01.2016 21:05 0,3 C -0,1 C 87 % 1002,0 hPa 0,0 mm 0,3 km/h (0 Bft) W-SW 247 -1,6 C 4,7 km/h (1 Bft)
05.01.2016 21:10 0,3 C -0,1 C 87 % 1002,0 hPa 0,0 mm 1,3 km/h (1 Bft) NO 45 -1,6 C 0,0 km/h (0 Bft)
05.01.2016 21:15 0,1 C -0,3 C 86 % 1002,0 hPa 0,0 mm 1,0 km/h (0 Bft) O 90 -2,0 C 0,0 km/h (0 Bft)
05.01.2016 21:20 -0,3 C -0,7 C 86 % 1002,0 hPa 0,0 mm 0,0 km/h (0 Bft) O 90 -2,3 C 0,0 km/h (0 Bft)
05.01.2016 21:25 -0,7 C -1,1 C 86 % 1002,0 hPa 0,0 mm 0,0 km/h (0 Bft) O 90 -2,7 C 0,0 km/h (0 Bft)
05.01.2016 21:30 0,0 C -0,6 C 87 % 1002,0 hPa 0,0 mm 1,0 km/h (0 Bft) NW 315 -1,9 C 3,6 km/h (1 Bft)
05.01.2016 21:35 0,0 C -0,6 C 87 % 1002,1 hPa 0,0 mm 1,6 km/h (1 Bft) O-SO 112 -1,9 C 0,0 km/h (0 Bft)
05.01.2016 21:40 -0,2 C -0,7 C 87 % 1002,1 hPa 0,0 mm 0,8 km/h (0 Bft) N-NW 337 -2,1 C 0,0 km/h (0 Bft)
05.01.2016 21:45 -0,2 C -0,7 C 87 % 1002,1 hPa 0,0 mm 0,0 km/h (0 Bft) O-NO 67 -2,1 C 0,0 km/h (0 Bft)
05.01.2016 21:50 -0,3 C -0,7 C 87 % 1002,1 hPa 0,0 mm 0,0 km/h (0 Bft) O-NO 67 -2,2 C 0,0 km/h (0 Bft)
05.01.2016 21:55 -0,5 C -0,8 C 87 % 1002,3 hPa 0,0 mm 0,0 km/h (0 Bft) N 360 -2,4 C 0,0 km/h (0 Bft)
05.01.2016 22:00 0,1 C -0,4 C 87 % 1002,3 hPa 0,0 mm 0,0 km/h (0 Bft) NO 45 -1,8 C 0,0 km/h (0 Bft)
05.01.2016 22:05 0,2 C -0,2 C 87 % 1002,3 hPa 0,0 mm 0,0 km/h (0 Bft) O 90 -1,7 C 0,0 km/h (0 Bft)
05.01.2016 22:10 0,4 C -0,1 C 88 % 1002,3 hPa 0,0 mm 0,0 km/h (0 Bft) O 90 -1,3 C 0,0 km/h (0 Bft)
05.01.2016 22:15 0,4 C 0,0 C 88 % 1002,3 hPa 0,0 mm 0,0 km/h (0 Bft) O 90 -1,3 C 0,0 km/h (0 Bft)
05.01.2016 22:20 0,3 C 0,0 C 88 % 1002,3 hPa 0,0 mm 0,0 km/h (0 Bft) O-NO 67 -1,4 C 0,0 km/h (0 Bft)
05.01.2016 22:25 0,4 C 0,1 C 88 % 1002,3 hPa 0,0 mm 0,0 km/h (0 Bft) N-NO 22 -1,3 C 0,0 km/h (0 Bft)
05.01.2016 22:30 0,3 C 0,1 C 87 % 1002,3 hPa 0,0 mm 0,0 km/h (0 Bft) O-NO 67 -1,6 C 0,0 km/h (0 Bft)
05.01.2016 22:35 0,3 C 0,0 C 87 % 1002,4 hPa 0,0 mm 0,0 km/h (0 Bft) N-NO 22 -1,6 C 0,0 km/h (0 Bft)
05.01.2016 22:40 0,3 C 0,0 C 87 % 1002,4 hPa 0,0 mm 0,0 km/h (0 Bft) N-NO 22 -1,6 C 0,0 km/h (0 Bft)
05.01.2016 22:44 0,3 C 0,0 C 87 % 1002,4 hPa 0,0 mm 0,3 km/h (0 Bft) SW 225 -1,6 C 3,9 km/h (1 Bft)
05.01.2016 22:45 0,3 C 0,0 C 87 % 1002,4 hPa 0,0 mm 0,3 km/h (0 Bft) SW 225 -1,6 C 3,9 km/h (1 Bft)
05.01.2016 22:50 0,8 C 0,4 C 87 % 1002,4 hPa 0,0 mm 0,8 km/h (0 Bft) O 90 -1,1 C 0,0 km/h (0 Bft)
05.01.2016 22:55 0,7 C 0,4 C 87 % 1002,5 hPa 0,0 mm 0,8 km/h (0 Bft) O-NO 67 -1,2 C 0,0 km/h (0 Bft)
05.01.2016 23:00 0,7 C 0,4 C 87 % 1002,5 hPa 0,0 mm 1,3 km/h (1 Bft) SO 135 -1,2 C 6,5 km/h (2 Bft)
05.01.2016 23:05 0,8 C 0,5 C 87 % 1002,5 hPa 0,0 mm 1,6 km/h (1 Bft) W-NW 292 -1,1 C 3,9 km/h (1 Bft)
05.01.2016 23:10 0,9 C 0,5 C 86 % 1002,5 hPa 0,0 mm 1,6 km/h (1 Bft) NW 315 -1,2 C 0,0 km/h (0 Bft)
05.01.2016 23:15 0,6 C 0,3 C 86 % 1002,4 hPa 0,0 mm 0,8 km/h (0 Bft) SO 135 -1,5 C 0,0 km/h (0 Bft)
05.01.2016 23:20 0,3 C 0,0 C 86 % 1002,4 hPa 0,0 mm 0,0 km/h (0 Bft) O-NO 67 -1,8 C 0,0 km/h (0 Bft)
05.01.2016 23:25 0,3 C -0,1 C 86 % 1002,4 hPa 0,0 mm 0,0 km/h (0 Bft) SO 135 -1,8 C 0,0 km/h (0 Bft)
05.01.2016 23:30 0,2 C -0,2 C 86 % 1002,4 hPa 0,0 mm 0,8 km/h (0 Bft) W 270 -1,9 C 7,0 km/h (2 Bft)
05.01.2016 23:35 0,2 C -0,2 C 85 % 1002,5 hPa 0,0 mm 1,0 km/h (0 Bft) O-SO 112 -2,0 C 0,0 km/h (0 Bft)
05.01.2016 23:40 0,2 C -0,3 C 86 % 1002,5 hPa 0,0 mm 1,6 km/h (1 Bft) W-SW 247 -1,9 C 8,5 km/h (2 Bft)
05.01.2016 23:45 0,4 C -0,1 C 86 % 1002,5 hPa 0,0 mm 2,6 km/h (1 Bft) S 180 -1,7 C 2,6 km/h (1 Bft)
05.01.2016 23:50 0,4 C 0,0 C 85 % 1002,5 hPa 0,0 mm 2,8 km/h (1 Bft) S 180 -1,8 C 3,9 km/h (1 Bft)
05.01.2016 23:55 0,5 C 0,1 C 85 % 1002,5 hPa 0,0 mm 1,6 km/h (1 Bft) S-SO 157 -1,7 C 4,9 km/h (1 Bft)
_ Min-Zeit 02:25 02:30 15:45 05:30 - 23:25 - - 01:00 23:35
Minimum _ -2,1 C -2,4 C 73 % 997,9 hPa - 0,0 km/h (0 Bft) - - -4,6 C 0,0 km/h (0 Bft)
_ Max-Zeit 14:10 14:15 10:25 23:55 23:55 00:10 - - 14:10 15:30
Maximum _ 5,2 C 9,2 C 90 % 1002,5 hPa 0,0 mm 9,3 km/h
SW (2 Bft)
- - 1,5 C 17,1 km/h
W-NW (3 Bft)
Durchschnitt _ 0,8 C 0,8 C 84 % 1000,5 hPa #0,0 mm 1,7 km/h (1 Bft) W-SW - -1,6 C 2,3 km/h (1 Bft)